Weather History for KWJF - April, 2012

Change the Weather History Date:

Wednesday, April 25, 2012

  Actual Average Record
Temperature  
Mean Temperature 70 °F 62 °F  
Max Temperature 82 °F 76 °F 91 °F (1987)
Min Temperature 58 °F 48 °F 34 °F (1960)
Degree Days  
Heating Degree Days 0    
Month to date heating degree days 188  
Since 1 July heating degree days 3025  
Cooling Degree Days 5    
Month to date cooling degree days 46  
Year to date cooling degree days 46  
Growing Degree Days 20 (Base 50)    
Moisture  
Dew Point 42 °F    
Average Humidity 45    
Maximum Humidity 67    
Minimum Humidity 22    
Precipitation  
Precipitation T in 0.01 in 0.32 in (1994)
Month to date precipitation 0.82 0.31  
Year to date precipitation 1.70 4.73  
Since 1 July precipitation 3.05  
Snow  
Snow 0.00 in - 0.00 in ()
Month to date snowfall 0.0  
Since 1 July snowfall 0.0  
Snow Depth 0.00 in    
Sea Level Pressure  
Sea Level Pressure 29.88 in    
Wind  
Wind Speed 9 mph (WSW)    
Max Wind Speed 30 mph    
Max Gust Speed 39 mph    
Visibility 10 miles    
Events      
T = Trace of Precipitation, MM = Missing Value Source: NWS Daily Summary

Daily Weather History Graph

Daily Weather History Graph

Search for Another Location

Airport or City:

Trip Planner

Search our weather history database for the weather conditions in past years. The results will help you decide how hot, cold, wet, or windy it might be!

Date:

Astronomy

Apr. 25, 2012 Rise Set
Actual Time 6:08 AM PDT 7:33 PM PDT
Civil Twilight 5:41 AM PDT 8:00 PM PDT
Nautical Twilight 5:10 AM PDT 8:32 PM PDT
Astronomical Twilight 4:36 AM PDT 9:05 PM PDT
Moon 9:03 AM PDT (4/25) 11:37 PM PDT (4/25)
Length of Visible Light 14h 18m
Length of Day
13h 25m
Waxing Crescent, 17% of the Moon is Illuminated
Apr 25
Waxing Crescent
Apr 29
First Quarter
May 5
Full
May 12
Last Quarter
May 20
New

Hourly Weather History & Observations

Time (PDT) Temp. Dew Point Humidity Pressure Visibility Wind Dir Wind Speed Gust Speed Precip Events Conditions
12:56 AM 66.0 °F 35.1 °F 32% 29.97 in 10.0 mi SW 15.0 mph - N/A   Partly Cloudy
1:56 AM 66.0 °F 35.1 °F 32% 29.96 in 10.0 mi SW 13.8 mph 20.7 mph N/A   Partly Cloudy
2:56 AM 64.0 °F 39.0 °F 40% 29.97 in 10.0 mi WSW 6.9 mph - N/A   Clear
3:56 AM 63.0 °F 41.0 °F 45% 29.96 in 10.0 mi NW 6.9 mph - N/A   Clear
4:56 AM 63.0 °F 39.9 °F 43% 29.96 in 10.0 mi SW 8.1 mph - N/A   Partly Cloudy
5:56 AM 63.0 °F 39.9 °F 43% 29.96 in 10.0 mi Calm Calm - N/A   Partly Cloudy
6:56 AM 61.0 °F 41.0 °F 48% 29.96 in 10.0 mi Calm Calm - N/A   Clear
7:56 AM 64.9 °F 42.1 °F 43% 29.96 in 10.0 mi Calm Calm - N/A   Partly Cloudy
8:56 AM 70.0 °F 43.0 °F 38% 29.95 in 10.0 mi Calm Calm - N/A   Clear
9:56 AM 73.9 °F 43.0 °F 33% 29.94 in 10.0 mi Calm Calm - N/A   Partly Cloudy
10:56 AM 75.9 °F 43.0 °F 31% 29.91 in 10.0 mi Calm Calm - N/A   Partly Cloudy
11:56 AM 78.1 °F 44.1 °F 30% 29.88 in 10.0 mi NW 3.5 mph - N/A   Partly Cloudy
12:56 PM 79.0 °F 44.1 °F 29% 29.86 in 10.0 mi NW 5.8 mph - N/A   Mostly Cloudy
1:56 PM 79.0 °F 43.0 °F 28% 29.84 in 10.0 mi Calm Calm - N/A   Mostly Cloudy
2:56 PM 82.0 °F 39.0 °F 22% 29.80 in 10.0 mi SW 8.1 mph - N/A   Mostly Cloudy
3:56 PM 82.0 °F 39.0 °F 22% 29.76 in 10.0 mi South 9.2 mph - N/A   Overcast
4:56 PM 81.0 °F 39.9 °F 23% 29.74 in 10.0 mi SSW 10.4 mph - N/A   Overcast
5:56 PM 75.9 °F 48.0 °F 37% 29.75 in 10.0 mi SW 20.7 mph 28.8 mph N/A   Clear
6:56 PM 68.0 °F 46.9 °F 47% 29.76 in 10.0 mi SW 21.9 mph 31.1 mph N/A   Clear
7:56 PM 61.0 °F 46.9 °F 60% 29.82 in 10.0 mi SW 23.0 mph - N/A   Clear
8:56 PM 59.0 °F 46.9 °F 64% 29.84 in 10.0 mi SW 26.5 mph 39.1 mph N/A   Scattered Clouds
9:56 PM 57.9 °F 46.0 °F 65% 29.87 in 10.0 mi SW 16.1 mph - N/A   Partly Cloudy
10:56 PM 57.9 °F 46.0 °F 65% 29.86 in 10.0 mi WSW 18.4 mph - N/A   Overcast
11:56 PM 59.0 °F 45.0 °F 60% 29.86 in 10.0 mi WSW 10.4 mph - 0.00 in   Overcast